This demonstration page uses our WeatherBlox Daily Observations layout. Learn more.

Left ArrowRight Arrow

44.89941, -97.11507

Hourly Observations for October 13, 2021

Temp ( °F °C ) Dew Point ( °F °C ) Humidity (%) Winds ( mph kmh ) Pressure ( in mb ) Visibility ( mi km ) Precip ( " mm )
12:53 am 00:53 Cloudy 54 12.2 50 10 87 87 E 9 15 29.84 1011 10 16 N/A
1:53 am 01:53 Cloudy 55 12.8 50 10 83 83 E 12 19 29.80 1009 10 16 N/A
2:53 am 02:53 Cloudy with Light Rain 54 12.2 51 10.6 90 90 E 12 19 29.79 1009 8 13 0.01 0.25
3:53 am 03:53 Cloudy with Light Rain 53 11.7 51 10.6 93 93 E 15 24 29.73 1007 10 16 0.02 0.51
4:31 am 04:31 Cloudy with Nearby Thunderstorms 53 11.7 51 10.6 93 93 E 16 26 29.66 1004 9 14 0.04 1.02
4:46 am 04:46 Cloudy with Light Rain 53 11.7 51 10.6 93 93 E 14 22 29.70 1006 10 16 0.05 1.27
4:53 am 04:53 Cloudy with Light Rain 53 11.7 51 10.6 93 93 E 10 17 29.70 1006 8 13 0.06 1.52
7:41 am 07:41 Cloudy with Light Rain 53 11.7 51 10.6 93 93 E 21 33 29.54 1000 8 13 0.08 2.03
7:53 am 07:53 Cloudy with Light Rain 53 11.7 51 10.6 93 93 E 21 33 29.52 1000 8 13 0.08 2.03
8:01 am 08:01 Cloudy 53 11.7 51 10.6 93 93 E 18 30 29.51 999 10 16 0.00 0.00
9:53 am 09:53 Cloudy with Heavy Rain 54 12.2 52 11.1 93 93 ESE 23 37 29.42 996 2 3 0.13 3.30
10:18 am 10:18 Cloudy with Rain 54 12.2 53 11.7 97 97 ESE 15 24 29.41 996 3 5 0.09 2.29
10:33 am 10:33 Cloudy with Rain 54 12.2 53 11.7 97 97 ESE 13 20 29.39 995 3 4 0.13 3.30
10:51 am 10:51 Cloudy with Light Rain 55 13 54 12 94 94 SE 17 28 29.37 995 5 8 0.16 4.06
10:53 am 10:53 Cloudy with Light Rain 55 12.8 53 11.7 93 93 SE 16 26 29.38 995 7 11 0.16 4.06
11:53 am 11:53 Cloudy 57 13.9 55 12.8 93 93 SSE 22 35 29.34 993 10 16 0.01 0.25
12:09 pm 12:09 Cloudy with Heavy Rain 56 13.3 55 12.8 97 97 S 20 31 29.33 993 2 3 0.07 1.78
12:16 pm 12:16 Cloudy with Light Rain 57 13.9 55 12.8 93 93 SSE 18 30 29.31 993 3 5 0.08 2.03
12:26 pm 12:26 Cloudy 57 13.9 56 13.3 96 96 SSE 18 30 29.30 992 10 16 0.08 2.03
12:53 pm 12:53 Cloudy 59 15 56 13.3 90 90 SE 23 37 29.29 992 10 16 0.08 2.03
1:28 pm 13:28 Mostly Cloudy with Light Rain 61 16.1 55 12.8 81 81 SE 17 28 29.24 990 10 16 0.00 0.00
1:53 pm 13:53 Cloudy 61 16.1 54 12.2 78 78 SSE 25 41 29.25 991 10 16 0.00 0.00
2:53 pm 14:53 Mostly Cloudy 54 12.2 44 6.7 69 69 SSW 31 50 29.30 992 10 16 N/A
3:53 pm 15:53 Mostly Cloudy 53 11.7 40 4.4 61 61 S 24 39 29.30 992 10 16 N/A
4:53 pm 16:53 Cloudy 51 10.6 43 6.1 74 74 S 24 39 29.32 993 10 16 N/A
5:53 pm 17:53 Cloudy 50 10 43 6.1 77 77 SSW 32 52 29.34 994 10 16 0.00 0.00
6:53 pm 18:53 Cloudy 48 8.9 41 5 77 77 SSW 35 56 29.39 995 10 16 N/A
7:53 pm 19:53 Cloudy 46 7.8 41 5 83 83 SSW 26 43 29.42 996 10 16 N/A
8:22 pm 20:22 Cloudy 46 7.8 42 5.6 86 86 SSW 26 43 29.43 997 10 16 N/A
8:53 pm 20:53 Cloudy 46 7.8 42 5.6 86 86 S 25 41 29.43 997 10 16 N/A
9:22 pm 21:22 Cloudy with Mist and Fog 45 7.2 44 6.7 97 97 S 22 35 29.46 998 6 10 N/A
9:53 pm 21:53 Cloudy with Light Rain 46 7.8 45 7.2 96 96 SSW 23 37 29.45 997 3 5 0.00 0.00
10:08 pm 22:08 Cloudy with Light Rain 47 8.3 46 7.8 97 97 SW 24 39 29.47 998 3 4 0.00 0.00
10:18 pm 22:18 Cloudy with Light Rain 47 8.3 46 7.8 97 97 SW 24 39 29.47 998 3 5 0.00 0.00
10:40 pm 22:40 Cloudy 47 8.3 45 7.2 93 93 WSW 25 41 29.48 998 9 14 0.00 0.00
10:53 pm 22:53 Cloudy 47 8.3 45 7.2 93 93 WSW 22 35 29.48 998 10 16 0.00 0.00
11:24 pm 23:24 Cloudy with Light Rain 46 7.8 45 7.2 96 96 WSW 25 41 29.51 999 5 8 0.02 0.51
11:35 pm 23:35 Cloudy with Mist and Fog 44 6.7 43 6.1 96 96 WSW 32 52 29.53 1000 5 8 0.02 0.51
11:53 pm 23:53 Cloudy with Mist and Fog 44 6.7 43 6.1 96 96 WSW 17 28 29.52 1000 6 10 0.02 0.51

Powered by AerisWeather